Home   Weather   Montgomery   Past weeks

Flag for USA Past Weather in Montgomery, Alabama, USA — Yesterday and Last 2 Weeks

Now
78 °F

Clear.


Feels Like: 79 °F
Forecast: 76 / 92 °F
Wind: No wind

Location: Maxwell Air Force Base / Montgomery

Current Time: Jul 20, 2017 at 11:46:25 pm

Latest Report: Jul 20, 2017 at 10:58 pm


Visibility: 10 mi

Pressure: 30.03 "Hg

Humidity: 95%

Dew Point: 76 °F

Location of MontgomeryLocation

Past Weather in Montgomery — Graph

°F

Montgomery Temperature Yesterday

Maximum temperature yesterday: 93 °F (at 3:58 pm)
Minimum temperature yesterday: 75 °F (at 2:58 am)
Average temperature yesterday: 82 °F

High & Low Weather Summary for the Past Weeks

 TemperatureHumidityPressure
High95 °F (Jul 20, 2:58 pm)100% (Jul 6, 5:55 am)30.20 "Hg (Jul 6, 5:55 am)
Low72 °F (Jul 7, 6:03 pm)42% (Jul 20, 1:58 pm)29.92 "Hg (Jul 16, 4:58 pm)
Average81 °F80%30.06 "Hg
* Reported Jul 5 9:55 pm — Jul 20 9:58 pm, Montgomery. Weather by CustomWeather, © 2017

Note: Actual official high and low records may vary slightly from our data, if they occured in-between our weather recording intervals... More about our weather records

Advertising

Montgomery Weather History for the Previous 24 Hours

Scroll right to see more
 ConditionsComfort  
Time TempWeatherWind HumidityBarometerVisibility
9:58 pm
Thu, Jul 20
79 °FClear.No wind91%30.02 "Hg10 mi
8:58 pm80 °FClear.No wind88%30.02 "Hg10 mi
7:58 pm82 °FPassing clouds.No wind82%30.02 "Hg10 mi
6:58 pm84 °FSunny.3 mph75%30.02 "Hg10 mi
5:58 pm85 °FSunny.9 mph70%30.02 "Hg10 mi
4:58 pm90 °FSunny.9 mph61%30.01 "Hg10 mi
3:58 pm94 °FSunny.3 mph45%30.02 "Hg10 mi
2:58 pm95 °FSunny.6 mph44%30.05 "Hg10 mi
1:58 pm95 °FSunny.No wind42%30.07 "Hg10 mi
12:58 pm94 °FSunny.8 mph49%30.09 "Hg10 mi
11:58 am93 °FSunny.7 mph51%30.11 "Hg10 mi
10:58 am91 °FSunny.5 mph57%30.11 "Hg10 mi
9:58 am89 °FSunny.3 mph64%30.11 "Hg10 mi
8:58 am85 °FSunny.No wind77%30.11 "Hg10 mi
7:58 am81 °FSunny.No wind88%30.10 "Hg10 mi
6:58 am78 °FSunny.No wind99%30.10 "Hg10 mi
5:58 am76 °FSunny.No wind98%30.09 "Hg8 mi
4:58 am76 °FClear.3 mph100%30.08 "Hg10 mi
4:28 am77 °FFog.No wind100%30.07 "Hg2 mi
3:58 am76 °FPassing clouds.No wind100%30.06 "Hg8 mi
2:58 am77 °FClear.No wind100%30.06 "Hg9 mi
1:58 am78 °FClear.No wind100%30.07 "Hg7 mi
12:58 am79 °FClear.No wind100%30.08 "Hg8 mi
11:58 pm
Wed, Jul 19
79 °FClear.No wind100%30.09 "Hg10 mi
Weather by CustomWeather, © 2017

See weather overviewHow to use our weather pages